Retour au catalogue

COSMOS 839 DEB

ActifUNKNOWN
NORAD 10453·DEBRIS·🇷🇺 Russia

Lancé Jul 8, 1976 depuis Plesetsk Cosmodrome

Loading…

Prochains Passages (prochaines 24 heures)

TLE

FraisSource: Space-Track

Époque: Sep 14, 2026, 03:02 UTC

1 10453U 76067AE  26257.12700613 -.00000110  00000-0 -14958-3 0  9995
2 10453  65.8117 147.7061 0727041 273.6756 244.8659 12.42566312274571

Suivez COSMOS 839 DEB en temps réel avec AllMySat

Download on the App Store